This is the latest recevied weather packets stored in our database for station/object HP2BWJ-13. If no packets are shown the sender has not sent any weather packets the latest 10 day(s).
| Time | Temp. | Humidity | Pressure | Rain* | Wind** | Luminosity | Snow |
|---|---|---|---|---|---|---|---|
| 1777711433 | 23.33° C | 89% | 1008 hPa | 0.25 mm | - | - | - |
| 1777711373 | 23.33° C | 89% | 1008 hPa | 0.25 mm | - | - | - |
| 1777710232 | 23.89° C | 89% | 1008 hPa | 0.51 mm | - | - | - |
| 1777710172 | 23.89° C | 89% | 1008 hPa | 0.51 mm | - | - | - |
| 1777709031 | 24.44° C | 89% | 1008 hPa | 2.03 mm | - | - | - |
| 1777708971 | 24.44° C | 89% | 1008 hPa | 2.03 mm | - | - | - |
| 1777707830 | 25° C | 89% | 1008 hPa | 2.79 mm | - | - | - |
| 1777707770 | 25° C | 89% | 1008 hPa | 2.79 mm | - | - | - |
| 1777706630 | 25.56° C | 89% | 1008 hPa | 5.08 mm | - | - | - |
| 1777706569 | 25.56° C | 89% | 1008 hPa | 5.08 mm | - | - | - |
| 1777705429 | 23.33° C | 89% | 1009 hPa | 4.32 mm | - | - | - |
| 1777705369 | 23.33° C | 89% | 1009 hPa | 4.32 mm | - | - | - |
| 1777704228 | 23.89° C | 89% | 1008 hPa | 5.84 mm | - | - | - |
| 1777704168 | 23.89° C | 89% | 1008 hPa | 5.84 mm | - | - | - |
| 1777703027 | 24.44° C | 89% | 1009 hPa | 3.3 mm | - | - | - |
| 1777702967 | 24.44° C | 89% | 1009 hPa | 3.3 mm | - | - | - |
| 1777701826 | 25° C | 89% | 1009 hPa | 3.56 mm | - | - | - |
| 1777701766 | 25° C | 89% | 1009 hPa | 3.56 mm | - | - | - |
| 1777700626 | 25.56° C | 89% | 1008 hPa | 3.81 mm | - | - | - |
| 1777700565 | 25.56° C | 89% | 1008 hPa | 3.81 mm | - | - | - |
| 1777699425 | 26.11° C | 89% | 1009 hPa | 1.02 mm | - | - | - |
| 1777699365 | 26.11° C | 89% | 1009 hPa | 1.02 mm | - | - | - |
| 1777698224 | 26.67° C | 89% | 1009 hPa | 0.25 mm | - | - | - |
| 1777698163 | 26.67° C | 89% | 1009 hPa | 0.25 mm | - | - | - |
| 1777697023 | 27.22° C | 89% | 1009 hPa | 0 mm | - | - | - |
* Rain latest hour (hover to see other rain measurements)
** Current wind speed in m/s (hover to see current wind gust speed)